Погода в Шегинях

Украина / Львовская область     49°48′03″N   22°58′29″E
темп.,
°C
ветер,
м/с
пор.,
м/с
влажн.,
%
обл.,
%
осадки,
мм/ч
давл.,
гПа
погр.,
м
4 марта, чт
чт423:00+4юз35800 0.0 1024104
02:00+5зюз39830 0.0 1022196
05:00+4зюз5128549 0.0 1019251
08:00+4юз5128355 0.0 1018267
11:00+9зюз6116764 0.0 1016632
14:00+11з7126238 0.0 10141395
17:00+9зюз5107284 0.0 1013450
20:00+6з488292 0.0 1013239
5 марта, пт
пт523:00+5ссв3495100 1.8 1013220
02:00+4с1295100 2.6 1012166
05:00+2с5797100 2.4 1012313
08:00+1ссз4698100 3.9 1012270
11:00+1с3598100 2.4 1015283
14:00+1ссв4697100 3.6 1017392
17:00+1ссв4786100 1.1 1019882
20:00−1с3574100 1.1 1022109
6 марта, сб
сб623:00−2ссз357833 0.0 1025135
02:00−2зсз267517 0.0 1026195
05:00−2з48780 0.0 1027343
08:00−2зсз58800 0.0 1029554
11:000сз676336 0.1 10311325
14:00+1сз575260 0.3 10311686
17:00+1сз475694 0.1 10311547
20:00−2зюз356960 0.1 1031120
7 марта, вс
вс723:00−2зюз47700 0.0 1031199
02:00−2юз510660 0.0 1030303
05:00−2зюз613660 0.0 1027484
08:00−1зюз713620 0.0 1026501
11:00+3з811480 0.0 10241173
14:00+4з812510 0.0 10221326
17:00+3зюз611610 0.0 1020786
20:000зюз512710 0.0 1019288
8 марта, пн
пн823:000зюз511719 0.0 1019267
02:00−1зюз387641 0.0 1019194
05:00−1зюз487640 0.0 1017211
08:00−1зюз497363 0.0 1017369
11:00+3з696694 0.0 10171146
14:00+3з696697 0.1 10171205
17:00+1зсз588999 0.3 1016620
20:000с4890100 1.9 1019612